[[{"header":{"parameterUnit":"m.s-1","parameterCategory":1,"la1":30.2991,"la2":30.254,"lo1":-89.0895,"lo2":-89.0444,"dy":0.0017,"dx":0.0017,"nx":28,"ny":28,"refTime":"2025-06-15T21:00:00:Z","depth":0,"parameterNumber":2,"parameterNumberName":"U-component_of_WINDS"},"data":[0,0,0,0,0,0,0,0,0,0,0,0,0,0,0,0,0,0,0,0,0,0,0,0,0,0,0,0,0,0,0,0,0,0,0,0,0,0,0,0,0,0,0,0,0,0,0,0,0,0,0,0,0,0,0,0,0,0,2.153,2.1531,0,2.1687,2.1689,2.169,2.1666,2.1664,2.1661,2.1659,2.1822,2.1828,2.1835,0,0,0,0,0,0,0,0,0,0,0,0,0,2.1209,2.1215,2.1529,2.1531,2.1533,2.1687,2.1689,2.1691,2.1667,2.1664,2.166,2.1657,2.1819,2.1827,2.1836,0,0,0,0,0,0,0,0,0,0,0,0,0,2.1355,2.1217,2.1529,2.154,2.1542,2.1686,2.1689,2.1692,2.1668,2.1664,2.166,2.1656,2.1817,2.1827,2.1837,2.198,0,0,2.1868,2.1872,0,0,0,0,0,0,0,0,2.1347,2.1367,2.1536,2.1539,2.1542,2.1653,2.1635,2.1788,2.1669,2.162,2.1659,2.1654,2.1769,2.1783,2.1821,2.1988,2.1995,2.1869,2.1875,2.188,2.1882,0,0,0,0,0,0,0,2.1337,2.136,2.1592,2.1539,2.1543,2.1537,2.1553,2.1664,2.1715,2.1624,2.1623,2.1642,2.177,2.1811,2.1825,2.1997,2.1869,2.1878,2.1884,2.1888,2.2289,2.2293,0,0,0,0,0,0,2.1324,2.1352,2.1587,2.1596,2.1433,2.1546,2.1564,2.1622,2.1714,2.1724,2.1645,2.164,2.1796,2.1813,2.183,2.2004,2.1879,2.1889,2.1895,2.2285,2.229,2.2295,0,0,0,0,0,0,2.1317,2.1345,2.158,2.1474,2.1503,2.1556,2.162,2.1627,2.1668,2.173,2.1739,2.1678,2.1793,2.1816,2.1943,2.2009,2.1894,2.1903,2.2279,2.2286,2.2292,2.2353,0,0,0,0,0,0,2.1308,2.1342,2.1398,2.1475,2.1509,2.169,2.1624,2.1633,2.1686,2.1681,2.1763,2.1773,2.1792,2.1928,2.1953,2.2021,2.1911,2.2274,2.2282,2.229,2.2345,2.2361,2.2374,0,0,0,0,0,2.1296,2.1409,2.14,2.1429,2.1579,2.1694,2.1714,2.1733,2.1691,2.1747,2.1786,2.177,2.1998,2.1941,2.1969,2.2042,2.2269,2.228,2.229,2.2339,2.2358,2.2374,0,0,0,0,0,0,2.1338,2.1419,2.1411,2.1552,2.1616,2.169,2.1761,2.1753,2.1831,2.1823,2.1844,2.1862,2.1991,2.2029,2.1964,2.2185,2.2128,2.2144,2.2156,2.2174,2.2189,2.2177,2.192,0,0,0,0,0,2.1364,2.145,2.1516,2.1635,2.1667,2.1709,2.1759,2.1768,2.1836,2.1864,2.1912,2.1979,2.2065,2.2122,2.2205,2.2351,2.2368,2.2414,2.2429,2.244,2.2454,2.2534,2.2555,2.2328,2.2328,2.2328,0,0,2.1418,2.1473,2.1526,2.1644,2.1695,2.1784,2.1732,2.1828,2.1895,2.1878,2.2001,2.2039,2.2115,2.2251,2.2314,2.2287,2.2521,2.2453,2.2462,2.247,2.2546,2.2568,2.2587,2.2335,2.2334,2.2333,0,0,2.1562,2.1612,2.1715,2.1767,2.1845,2.1871,2.1896,2.1971,2.1995,2.2118,2.2108,2.2187,2.2336,2.239,2.2437,2.26,2.2588,2.2627,2.2703,2.278,2.2798,2.2814,2.2872,2.2892,2.264,2.264,2.2641,0,2.1619,2.1753,2.177,2.1868,2.192,2.1908,2.2013,2.2063,2.2164,2.22,2.2168,2.2354,2.2404,2.2553,2.2592,2.2631,2.266,2.2618,2.2794,2.281,2.2825,2.288,2.2902,2.2645,2.2644,2.2644,2.2643,0,2.1819,2.1912,2.1986,2.2083,2.2144,2.2245,2.2277,2.2336,2.234,2.237,2.2495,2.2554,2.2649,2.2685,2.269,2.2835,2.2815,2.2789,2.2732,2.285,2.2903,2.2924,2.2651,2.2649,2.2648,2.2647,0,0,2.1995,2.2099,2.2126,2.2169,2.2253,2.2326,2.2426,2.2517,2.2568,2.2637,2.2722,2.2847,2.2822,2.2876,2.2887,2.2954,2.3079,2.2919,2.2921,2.2946,2.3242,2.3261,2.3286,2.3071,2.3075,2.3079,2.3235,0,2.2147,2.2323,2.2341,2.2499,2.2584,2.2574,2.2661,2.2722,2.2753,2.283,2.2863,2.2952,2.2913,2.2945,2.3011,2.305,2.3138,2.3039,2.315,2.3154,2.3131,2.3313,2.3335,2.3479,2.3256,2.3259,2.3262,0,2.2348,2.2422,2.2588,2.2659,2.2696,2.2774,2.2859,2.2933,2.3002,2.3019,2.3078,2.3079,2.3182,2.3121,2.3263,2.3195,2.3241,2.3267,2.3273,2.3285,2.3215,2.3329,2.3526,2.3548,2.3294,2.3292,2.3289,0,2.2459,2.2601,2.2718,2.2756,2.2842,2.2897,2.2935,2.3,2.3054,2.3128,2.3163,2.3249,2.3296,2.3362,2.3386,2.3339,2.3527,2.3468,2.3545,2.3544,2.3585,2.3582,2.3792,2.3615,2.3615,2.3614,2.3614,0,2.2626,2.2728,2.2769,2.2841,2.2955,2.2975,2.3087,2.3123,2.318,2.3259,2.3256,2.333,2.3358,2.3437,2.3457,2.3571,2.3593,2.361,2.3614,2.361,2.3608,2.3641,2.3632,2.362,2.3619,2.3618,2.3617,0,2.277,2.2801,2.2929,2.2999,2.3019,2.31,2.3161,2.323,2.3259,2.3359,2.3384,2.3429,2.3522,2.3553,2.3665,2.3679,2.3812,2.3807,2.3789,2.3789,2.3864,2.3857,2.4103,2.4136,2.3937,2.3939,2.394,0,2.2875,2.2953,2.3031,2.3084,2.3124,2.3209,2.3263,2.3285,2.3342,2.3425,2.3485,2.3577,2.3651,2.38,2.3843,2.3929,2.3926,2.4007,2.3939,2.3933,2.3927,2.3922,2.393,2.4019,2.4022,2.4023,2.4025,0,2.3058,2.3069,2.3147,2.3231,2.3296,2.3363,2.3428,2.3471,2.3503,2.3567,2.3661,2.3719,2.3833,2.3924,2.4011,2.4051,2.4043,2.4045,2.4067,2.4065,2.4051,2.4059,2.3823,2.404,2.4038,2.4037,2.4036,2.4036,2.3185,2.3254,2.3319,2.3407,2.3457,2.3518,2.3587,2.3624,2.3702,2.3796,2.3805,2.3906,2.3972,2.4089,2.4132,2.4212,2.419,2.4222,2.423,2.4238,2.4244,2.4037,2.4228,2.4228,2.4228,2.4227,2.4227,0,2.3367,2.3409,2.3489,2.3579,2.3648,2.3634,2.3704,2.3763,2.3852,2.3914,2.3987,2.4095,2.4183,2.4233,2.432,2.4375,2.4374,2.4397,2.4394,2.4403,2.4259,2.4231,2.4397,2.4397,2.4397,2.4397,2.4397,2.4397,2.347,2.3586,2.3605,2.3745,2.3785,2.3884,2.3926,2.3982,2.4031,2.4152,2.4224,2.4256,2.4313,2.4405,2.4485,2.4497,2.4529,2.4556,2.4566,2.443,2.4413,2.4396,2.437,2.4562,2.4563,2.4703,2.4704,2.4705]},{"header":{"parameterUnit":"m.s-1","parameterCategory":1,"la1":30.2991,"la2":30.254,"lo1":-89.0895,"lo2":-89.0444,"dy":0.0017,"dx":0.0017,"nx":28,"ny":28,"refTime":"2025-06-15T21:00:00:Z","depth":0,"parameterNumber":3,"parameterNumberName":"V-component_of_WINDS"},"data":[0,0,0,0,0,0,0,0,0,0,0,0,0,0,0,0,0,0,0,0,0,0,0,0,0,0,0,0,0,0,0,0,0,0,0,0,0,0,0,0,0,0,0,0,0,0,0,0,0,0,0,0,0,0,0,0,0,0,2.755,2.7551,0,2.7645,2.7646,2.7647,2.7606,2.7604,2.7601,2.7599,2.7694,2.7699,2.7704,0,0,0,0,0,0,0,0,0,0,0,0,0,2.7328,2.7333,2.755,2.7551,2.7552,2.7645,2.7646,2.7648,2.7606,2.7603,2.7601,2.7598,2.7693,2.7698,2.7704,0,0,0,0,0,0,0,0,0,0,0,0,0,2.7424,2.7334,2.7549,2.7543,2.7543,2.7645,2.7646,2.7648,2.7607,2.7603,2.76,2.7597,2.7691,2.7698,2.7705,2.7818,0,0,2.7726,2.7729,0,0,0,0,0,0,0,0,2.7419,2.7432,2.7543,2.7543,2.7544,2.761,2.7603,2.7705,2.7608,2.7583,2.7599,2.7595,2.7669,2.7678,2.7703,2.7822,2.7826,2.7727,2.7731,2.7734,2.7736,0,0,0,0,0,0,0,2.7412,2.7428,2.7587,2.7544,2.7545,2.7534,2.7544,2.7622,2.7644,2.7585,2.7582,2.7594,2.7669,2.7696,2.7705,2.7828,2.7727,2.7733,2.7737,2.774,2.8043,2.8047,0,0,0,0,0,0,2.7406,2.7423,2.7584,2.759,2.7472,2.7541,2.7552,2.7592,2.7643,2.7648,2.7597,2.7591,2.7686,2.7697,2.7708,2.7843,2.7734,2.7741,2.7745,2.8039,2.8044,2.8048,0,0,0,0,0,0,2.7401,2.7421,2.758,2.7506,2.7525,2.7548,2.7594,2.7596,2.7624,2.7652,2.7656,2.7621,2.7684,2.7698,2.7791,2.7846,2.7744,2.775,2.8035,2.8041,2.8046,2.8115,0,0,0,0,0,0,2.7395,2.7419,2.7464,2.7507,2.7529,2.7663,2.7598,2.76,2.7636,2.7631,2.7676,2.768,2.7682,2.778,2.7798,2.7854,2.7756,2.803,2.8037,2.8044,2.8108,2.8123,2.8135,0,0,0,0,0,2.7388,2.7479,2.7466,2.7486,2.7585,2.7666,2.7679,2.768,2.7641,2.7685,2.7703,2.7679,2.7837,2.779,2.7809,2.7869,2.8026,2.8035,2.8044,2.8102,2.812,2.8135,0,0,0,0,0,0,2.7441,2.7485,2.7471,2.7579,2.7619,2.7659,2.7715,2.7698,2.775,2.7742,2.774,2.7751,2.7846,2.7866,2.7813,2.798,2.7926,2.7939,2.7964,2.7981,2.7994,2.7987,2.7762,0,0,0,0,0,2.7465,2.7528,2.7563,2.7655,2.7676,2.7692,2.7727,2.7724,2.7765,2.7782,2.7807,2.7847,2.7905,2.7944,2.7999,2.811,2.8119,2.816,2.8174,2.8185,2.8196,2.8255,2.8274,2.8076,2.8076,2.8076,0,0,2.7516,2.7548,2.7588,2.7666,2.7697,2.7761,2.7706,2.7777,2.7824,2.7792,2.7881,2.7901,2.7945,2.8047,2.8093,2.8067,2.8252,2.8196,2.8204,2.821,2.8266,2.8285,2.8301,2.8082,2.8081,2.808,0,0,2.7642,2.7673,2.7753,2.7785,2.7832,2.7842,2.7861,2.7903,2.7915,2.8005,2.7982,2.8037,2.8138,2.8171,2.82,2.8337,2.8317,2.8355,2.8426,2.8483,2.8499,2.8513,2.8561,2.8579,2.8366,2.8366,2.8366,0,2.7699,2.7796,2.7796,2.7868,2.7903,2.7877,2.7958,2.7988,2.8051,2.8075,2.8045,2.817,2.8198,2.8307,2.8341,2.8366,2.8387,2.835,2.8497,2.8511,2.8524,2.857,2.8588,2.837,2.837,2.837,2.8369,0,2.7864,2.7932,2.799,2.8052,2.8094,2.817,2.8179,2.8221,2.8214,2.8227,2.8317,2.835,2.8411,2.8436,2.843,2.8544,2.8526,2.8497,2.8442,2.8547,2.859,2.8608,2.8377,2.8375,2.8374,2.8373,0,0,2.8027,2.8088,2.8109,2.8137,2.8186,2.8238,2.8312,2.8373,2.8408,2.8452,2.8513,2.8599,2.8571,2.8605,2.8602,2.8652,2.8758,2.8616,2.8617,2.8641,2.8885,2.8908,2.8928,2.8744,2.8748,2.875,2.8881,0,2.8157,2.8288,2.8289,2.841,2.8471,2.8447,2.8511,2.8548,2.8562,2.8615,2.8629,2.869,2.8649,2.8669,2.8718,2.8735,2.8807,2.8725,2.8801,2.8804,2.8791,2.8951,2.8975,2.9097,2.8898,2.8901,2.8903,0,2.8326,2.8376,2.8503,2.8543,2.8569,2.8627,2.8682,2.8734,2.8774,2.878,2.8818,2.8806,2.888,2.8823,2.8924,2.8869,2.8899,2.8912,2.8917,2.8924,2.886,2.8963,2.9136,2.9155,2.893,2.8928,2.8926,0,2.8433,2.8531,2.862,2.8644,2.8693,2.8734,2.8756,2.8793,2.883,2.8877,2.89,2.8955,2.8986,2.9028,2.9032,2.899,2.9134,2.9077,2.914,2.914,2.9172,2.917,2.9353,2.9191,2.9191,2.9191,2.919,0,2.8578,2.8656,2.8668,2.8723,2.8809,2.8809,2.8894,2.8912,2.8946,2.9002,2.8984,2.9037,2.9038,2.9092,2.9095,2.9178,2.9192,2.9198,2.9198,2.92,2.9199,2.9221,2.9212,2.9195,2.9194,2.9193,2.9193,0,2.8712,2.8723,2.8818,2.8856,2.8868,2.893,2.8962,2.9013,2.9024,2.9096,2.9113,2.913,2.9193,2.92,2.9273,2.9274,2.9375,2.9365,2.9362,2.936,2.9423,2.9417,2.9627,2.9654,2.9474,2.9476,2.9477,0,2.8804,2.8864,2.8909,2.8946,2.897,2.903,2.9067,2.9068,2.9107,2.9157,2.9202,2.9262,2.9311,2.9412,2.943,2.9485,2.9477,2.9547,2.9485,2.9485,2.9478,2.9475,2.9481,2.9559,2.9561,2.9562,2.9564,0,2.8966,2.8968,2.9023,2.9079,2.9124,2.9168,2.9209,2.924,2.9246,2.929,2.9354,2.9392,2.9466,2.9527,2.9581,2.9602,2.9584,2.9583,2.96,2.9604,2.9599,2.9602,2.9394,2.9578,2.9577,2.9576,2.9575,2.9574,2.9082,2.9134,2.9174,2.9234,2.9266,2.9304,2.9354,2.9372,2.9426,2.9487,2.9484,2.9554,2.9591,2.9662,2.9687,2.9742,2.9718,2.9744,2.975,2.9757,2.9763,2.959,2.9751,2.9751,2.975,2.975,2.975,0,2.9243,2.9267,2.9323,2.9382,2.943,2.9409,2.9453,2.9494,2.9557,2.9594,2.9642,2.9715,2.9773,2.9796,2.9852,2.9891,2.9884,2.9906,2.9903,2.9908,2.9781,2.976,2.991,2.991,2.991,2.991,2.991,2.991,2.9333,2.942,2.9427,2.9528,2.9551,2.9621,2.9648,2.9683,2.9712,2.9795,2.9844,2.9858,2.9889,2.9947,2.9999,3.0004,3.0025,3.0051,3.0052,2.9933,2.9917,2.9902,2.9882,3.0056,3.0056,3.0175,3.0176,3.0177]}]]